Terre Haute, IN

8:26 PM EDT on August 25, 2016 (GMT -0400)
Terre Haute International-Hulman

Weather History for KHUF - January, 2014

Change the Weather History Date:

Monday, January 13, 2014

  Actual Average Record
Temperature  
Mean Temperature 43 °F 28 °F  
Max Temperature 53 °F 36 °F 67 °F (1960)
Min Temperature 33 °F 20 °F -10 °F (1977)
Degree Days  
Heating Degree Days 22 37  
Month to date heating degree days 549 481  
Since 1 July heating degree days 2754 2592  
Cooling Degree Days 0 0  
Month to date cooling degree days 0 0  
Year to date cooling degree days 0 0  
Moisture  
Dew Point 35 °F    
Average Humidity 70    
Maximum Humidity 82    
Minimum Humidity 58    
Precipitation  
Precipitation 0.00 in 0.08 in 1.27 in (2005)
Month to date precipitation 1.65 1.23  
Year to date precipitation 1.65 1.23  
Sea Level Pressure  
Sea Level Pressure 29.74 in    
Wind  
Wind Speed 12 mph (SW)    
Max Wind Speed 22 mph    
Max Gust Speed 31 mph    
Visibility 10 miles    
Events      
T = Trace of Precipitation, MM = Missing Value Source: NWS Daily Summary

Daily Weather History Graph

Daily Weather History Graph

Search for Another Location

Airport or City:

Trip Planner

Search our weather history database for the weather conditions in past years. The results will help you decide how hot, cold, wet, or windy it might be!

Date:

Astronomy

Jan. 13, 2014 Rise Set
Actual Time 8:08 AM EST 5:47 PM EST
Civil Twilight 7:38 AM EST 6:17 PM EST
Nautical Twilight 7:05 AM EST 6:50 PM EST
Astronomical Twilight 6:33 AM EST 7:22 PM EST
Moon 4:02 PM EST (1/13) 5:56 AM EST (1/13)
Length of Visible Light 10h 38m
Length of Day
9h 39m
Waxing Gibbous, 95% of the Moon is Illuminated
Jan 13
Waxing Gibbous
Jan 15
Full
Jan 24
Last Quarter
Jan 30
New
Feb 6
First Quarter

Hourly Weather History & Observations

Time (EST) Temp. Windchill Dew Point Humidity Pressure Visibility Wind Dir Wind Speed Gust Speed Precip Events Conditions
12:53 AM 44.1 °F 36.8 °F 30.0 °F 58% 29.80 in 10.0 mi South 16.1 mph - N/A   Clear
1:53 AM 44.1 °F 37.1 °F 30.0 °F 58% 29.78 in 10.0 mi South 15.0 mph - N/A   Clear
2:53 AM 44.1 °F 37.1 °F 30.9 °F 60% 29.77 in 10.0 mi South 15.0 mph 21.9 mph N/A   Clear
3:53 AM 45.0 °F 38.2 °F 30.9 °F 58% 29.75 in 10.0 mi South 15.0 mph 23.0 mph N/A   Clear
4:53 AM 45.0 °F 38.5 °F 32.0 °F 60% 29.74 in 10.0 mi South 13.8 mph - N/A   Clear
5:53 AM 45.0 °F 38.9 °F 32.0 °F 60% 29.73 in 10.0 mi South 12.7 mph - N/A   Clear
6:53 AM 46.0 °F 41.0 °F 32.0 °F 58% 29.71 in 10.0 mi South 10.4 mph 19.6 mph N/A   Clear
7:53 AM 46.0 °F 39.6 °F 34.0 °F 63% 29.68 in 10.0 mi South 15.0 mph - N/A   Clear
8:53 AM 48.0 °F - 36.0 °F 63% 29.68 in 10.0 mi SSW 15.0 mph 26.5 mph N/A   Clear
9:53 AM 48.9 °F - 39.0 °F 69% 29.70 in 10.0 mi SSW 16.1 mph 26.5 mph N/A   Scattered Clouds
10:53 AM 48.9 °F - 39.9 °F 71% 29.71 in 10.0 mi SSW 11.5 mph - N/A   Overcast
11:53 AM 50.0 °F - 41.0 °F 71% 29.70 in 10.0 mi SW 16.1 mph 24.2 mph N/A   Overcast
12:53 PM 51.1 °F - 42.1 °F 71% 29.68 in 10.0 mi SW 13.8 mph 20.7 mph N/A   Scattered Clouds
1:53 PM 52.0 °F - 43.0 °F 71% 29.66 in 10.0 mi SW 11.5 mph - N/A   Partly Cloudy
2:19 PM 51.8 °F - 42.8 °F 71% 29.66 in 10.0 mi WSW 17.3 mph 23.0 mph N/A   Mostly Cloudy
2:53 PM 52.0 °F - 41.0 °F 66% 29.66 in 10.0 mi West 16.1 mph 23.0 mph N/A   Overcast
3:53 PM 52.0 °F - 39.0 °F 61% 29.68 in 10.0 mi West 11.5 mph - N/A   Clear
4:53 PM 50.0 °F - 37.0 °F 61% 29.71 in 10.0 mi West 10.4 mph - N/A   Mostly Cloudy
5:53 PM 46.9 °F - 36.0 °F 66% 29.73 in 10.0 mi West 6.9 mph - N/A   Partly Cloudy
6:53 PM 44.1 °F 40.1 °F 36.0 °F 73% 29.75 in 10.0 mi WSW 6.9 mph - N/A   Clear
7:53 PM 42.1 °F 40.2 °F 35.1 °F 76% 29.78 in 10.0 mi West 3.5 mph - N/A   Scattered Clouds
8:53 PM 42.1 °F 35.7 °F 34.0 °F 73% 29.81 in 10.0 mi NW 11.5 mph - N/A   Clear
9:53 PM 37.9 °F 31.5 °F 32.0 °F 79% 29.83 in 10.0 mi NW 9.2 mph - N/A   Clear
10:53 PM 35.1 °F 28.6 °F 28.9 °F 78% 29.84 in 10.0 mi NW 8.1 mph - N/A   Clear
11:53 PM 34.0 °F 29.8 °F 28.9 °F 82% 29.84 in 10.0 mi NW 4.6 mph - N/A   Clear